GFSSW_850_dewp_021.txt.gz
Dewpoint
-17 -16 -15 -14 -15 -16 -16 -16 -16 -17 -17 -15 -12 -10 -9 -9 -13 -13 -10 -14 -9 -9 -5 -5 5 1 10 14 14 12 15 15 11 10 4 6 9 10 11 13 14 13 15 15 15
-17 -17 -18 -17 -16 -15 -15 -15 -16 -16 -16 -16 -17 -15 -12 -10 -10 -14 -19 -16 -4 -2 -1 -5 3 7 7 8 13 12 14 10 7 8 5 6 9 9 10 12 13 14 13 15 16
-20 -20 -19 -18 -18 -18 -17 -15 -15 -15 -16 -16 -16 -17 -17 -13 -12 -12 -5 -13 -4 -6 -5 -5 -4 -0 4 5 6 9 10 8 8 6 6 3 4 6 7 12 12 13 14 15 16
-19 -20 -21 -21 -20 -19 -19 -18 -17 -15 -15 -15 -16 -17 -17 -16 -5 -3 -6 -8 -8 -7 -6 -7 -6 -4 -1 2 1 7 5 4 3 6 3 3 3 5 6 10 12 12 12 15 15
-17 -18 -19 -21 -21 -21 -20 -19 -19 -18 -16 -15 -15 -16 -18 -11 -9 -8 -8 -8 -10 -12 -11 -6 -5 -4 -1 -0 0 3 3 3 2 4 5 3 4 6 7 11 12 12 12 14 15
-12 -14 -16 -17 -19 -21 -21 -20 -19 -18 -19 -17 -15 -17 -18 -4 -13 -8 -9 -6 -6 -9 -11 -4 -3 -3 -2 -1 -0 1 0 -3 1 4 5 5 4 5 8 12 13 13 12 12 11
-6 -8 -12 -14 -15 -17 -19 -21 -20 -18 -19 -19 -16 -17 -14 -14 -12 -6 -6 -6 -4 -4 -4 -3 -2 -2 -3 -1 -2 -2 -1 -3 -3 -3 4 6 10 5 7 11 12 13 13 12 12
-4 -5 -6 -9 -13 -14 -15 -18 -20 -18 -19 -19 -16 -13 -11 -11 -11 -9 -4 -4 -5 -4 -2 -3 -4 -3 -3 -4 -3 -3 -4 -2 -3 -2 1 8 12 6 6 10 11 12 12 13 12
-1 -2 -4 -6 -9 -13 -14 -17 -19 -18 -19 -17 -13 -9 2 -4 -6 -9 -7 -7 -4 -2 -2 -4 -4 -5 -7 -4 -2 -4 -2 -2 -3 -2 1 6 10 4 5 9 9 11 11 12 12
-1 -1 -2 -3 -6 -11 -14 -18 -11 -3 -2 -2 3 6 -2 -6 -4 -5 -5 -7 -7 -5 -7 -4 -4 -4 -6 -5 -0 -2 -2 -3 -2 0 6 8 8 6 5 6 8 9 10 10 11
-2 -2 -2 -2 -4 -9 -16 -10 -5 -1 5 6 3 -2 -7 -5 -4 -4 -6 -6 -8 -10 -6 -6 -3 -2 -5 -8 -6 -4 -4 -2 -3 1 9 9 8 7 5 5 6 9 9 10 10
-4 -4 -3 -3 -3 -11 -7 -5 -9 -7 -8 -10 -9 -3 2 -0 1 -4 -6 -8 -8 -7 -5 -5 -3 -4 -6 -7 -7 -5 -4 -3 -3 2 8 11 9 8 5 4 6 7 8 9 10
-9 -8 -6 -4 -4 -6 -5 -7 -7 -10 -10 -11 -12 -11 -11 -5 -2 -3 -5 -8 -7 -5 -4 -4 -4 -4 -6 -6 -5 -5 -4 -3 -1 2 6 11 11 11 5 5 6 6 7 9 9
-12 -12 -11 -7 -5 -6 -8 -5 -8 -10 -6 -8 -11 -12 -12 -11 -6 -2 -4 -6 -4 -4 -5 -5 -6 -6 -6 -7 -7 -3 -5 -4 -3 0 7 8 13 11 7 7 7 6 6 7 9
-7 -10 -12 -12 -7 -4 -6 -7 -9 -8 -0 -7 -10 -12 -13 -12 -8 -3 -3 -6 -3 -4 -7 -5 -5 -5 -7 -9 -11 -6 -5 -4 -3 -1 6 5 7 11 9 9 8 6 6 6 7
-7 -7 -7 -10 -10 -5 -5 -8 -8 -4 -0 -6 -11 -12 -12 -13 -11 -12 -4 -7 -8 -4 -4 -7 -9 -8 -7 -9 -12 -12 -7 -4 -3 -2 4 5 6 9 9 9 7 6 6 6 6
-7 -8 -8 -7 -11 -6 -6 -6 -5 -3 -6 -5 -7 -9 -11 -11 -12 -12 -10 -8 -8 -4 -4 -3 -5 -9 -9 -8 -12 -12 -9 -2 1 1 3 3 6 9 6 5 7 7 6 7 7
-4 -10 -11 -9 -8 -5 -5 -3 -1 -3 -5 -7 -7 -7 -6 -9 -10 -11 -10 -9 -10 -8 -5 -3 -1 -4 -8 -8 -10 -11 -11 -6 2 2 2 1 6 6 4 3 6 6 5 6 6
-4 -9 -14 -11 -6 -3 -1 0 -3 -3 -5 -5 -5 -5 -5 -6 -6 -9 -10 -6 -9 -10 -6 -4 -3 -5 -7 -8 -10 -8 -10 -12 -7 -3 1 0 -1 -2 4 3 4 4 4 5 4
-2 -0 -15 -4 -3 -2 -1 0 -2 -5 -4 -4 -2 -4 -4 -5 -6 -4 -7 -8 -7 -10 -10 -5 -0 -5 -6 -8 -9 -10 -10 -9 -10 -5 -0 -1 1 3 2 5 6 5 5 4 4
1 -0 -13 -6 -5 -3 -1 -1 -2 -4 -4 -3 -2 -2 -3 -4 -5 -6 -6 -6 -7 -7 -8 -8 -5 -4 -5 -5 -7 -7 -9 -10 -10 -8 -3 1 -0 -2 3 6 6 4 3 2 4
1 -0 -16 -7 -4 -3 -2 -3 -4 -4 -5 -4 -3 -2 -1 -2 -3 -4 -6 -8 -9 -8 -6 -7 -6 -4 -4 -6 -8 -9 -7 -8 -6 -3 -2 -5 -4 -4 -5 4 4 3 2 1 2
1 -1 -10 -4 -3 -3 -5 -5 -6 -7 -7 -7 -6 -6 -5 -2 -1 -3 -4 -7 -10 -10 -6 -6 -5 -3 -3 -6 -7 -7 -8 -8 -10 -6 -3 1 -3 -9 -8 2 -0 3 3 1 0
1 -1 -5 -4 -5 -5 -4 -1 0 -1 -2 -3 -2 -2 -1 -0 -2 -0 -1 -5 -8 -11 -3 2 -5 -5 -3 -3 -3 -1 -6 -7 -8 -6 -7 -7 -8 -8 0 4 -1 -2 0 -0 2
1 0 -3 -0 -0 -1 -2 2 -0 -2 -3 -2 0 2 3 3 4 3 3 2 1 -0 -2 -4 -1 -4 -5 -5 -4 -5 -3 -6 -6 -9 -4 -7 -7 -7 -4 6 5 1 -0 0 -1
1 -0 -0 1 -1 -1 -3 -4 -6 -3 -2 -0 0 2 2 5 5 5 2 3 3 1 1 -1 3 1 -1 -5 -6 -6 -4 -3 -7 -7 -6 -5 -5 -5 -3 2 4 3 2 -2 -2
0 1 2 1 -2 -2 -2 -3 -1 -1 0 -0 -2 -1 1 0 1 2 1 0 1 2 2 1 2 3 1 -0 -0 -2 -5 -3 -2 -5 -5 -4 -7 -5 -4 -1 3 4 1 -2 -2

GFSSW_850_dewp_024.txt.gz
Dewpoint
-19 -19 -18 -18 -18 -17 -16 -15 -15 -16 -15 -16 -16 -17 -16 -12 -9 -10 -13 -19 -14 -11 -7 6 11 13 16 17 13 11 13 14 11 10 12 12 13 14 14 14 14 15 14 14 14
-18 -20 -20 -20 -19 -18 -18 -18 -17 -15 -15 -15 -16 -16 -17 -17 -12 -11 -21 -20 -20 -11 -5 3 6 13 16 16 15 12 13 12 8 7 10 10 12 13 14 15 15 15 14 14 14
-15 -17 -18 -20 -21 -21 -20 -19 -18 -18 -16 -15 -15 -16 -16 -17 -15 -12 -7 -9 -18 -13 -2 -1 -4 8 9 11 14 12 12 9 8 7 9 10 12 13 14 15 15 15 15 15 15
-7 -10 -14 -15 -17 -19 -20 -21 -20 -18 -18 -17 -16 -15 -16 -17 -11 -3 -7 -8 -16 -4 -3 -3 -1 -3 -2 5 10 11 10 8 7 7 7 9 12 13 12 12 12 13 15 15 15
-6 -7 -7 -10 -13 -15 -16 -19 -20 -21 -20 -19 -18 -16 -16 -16 -15 -9 -7 -8 -8 -6 -7 -5 -2 -5 -3 -3 -2 5 4 7 7 5 6 6 6 12 12 12 13 14 15 15 15
-1 -4 -6 -7 -8 -11 -13 -15 -17 -19 -21 -19 -19 -19 -17 -12 -13 -13 -11 -9 -8 -10 -11 -9 -5 -7 -4 -2 -1 -1 -0 0 2 4 4 4 5 8 11 12 14 15 16 15 15
1 1 -0 -3 -6 -7 -10 -13 -14 -17 -20 -19 -19 -20 -15 -12 -12 -7 -8 -6 -9 -6 -6 -8 -11 -4 -3 -2 -2 -1 -1 -2 -4 -1 5 5 9 12 12 12 13 15 15 16 15
-1 -1 0 0 -1 -5 -7 -10 -14 -17 -19 -19 -19 -17 -10 -11 -10 -11 -12 -6 -6 -6 -3 -5 -6 -5 -2 -2 -4 -3 -3 -2 -4 5 6 4 9 12 12 12 12 14 15 15 15
-3 -3 -2 -1 -1 -2 -5 -9 -16 -14 -11 -15 -15 -9 -7 -10 -8 -9 -9 -5 -4 -3 -2 -2 -3 -3 -4 -4 -3 -3 -1 -2 -3 2 7 7 9 7 12 13 12 12 13 14 14
-6 -6 -5 -3 -2 -2 -3 -12 -8 -1 1 0 3 3 -7 -9 -3 -5 -6 -5 -6 -6 -2 -2 -2 -3 -4 -4 -1 -1 -2 -4 -3 -1 6 8 8 7 12 13 13 13 12 12 11
-11 -12 -10 -6 -4 -3 -4 -9 -7 -2 -1 -4 0 -6 -10 -5 -7 -3 -7 -6 -6 -5 -4 -6 -2 -0 -3 -4 -5 -3 -3 -3 -4 -4 7 8 7 6 11 12 12 13 13 13 12
-6 -10 -13 -11 -7 -4 -7 -6 -3 -4 -6 -9 -9 -5 -9 -6 1 -0 -6 -6 -5 -5 -8 -6 -3 -4 -4 -5 -6 -6 -4 -3 -4 -4 7 8 7 5 8 10 11 11 12 12 12
-7 -7 -7 -13 -7 -5 -3 -5 -5 -6 -8 -10 -11 -10 -10 -9 -1 -1 -0 -4 -5 -7 -6 -6 -5 -6 -4 -3 -5 -6 -6 -5 -4 -4 9 8 9 9 6 5 8 10 10 11 11
-7 -8 -7 -8 -7 -7 -6 -5 -7 -8 -7 -7 -10 -11 -12 -11 -7 -9 -1 -6 -7 -5 -7 -5 -6 -5 -5 -3 -4 -3 -7 -7 -5 -2 5 7 10 10 8 6 6 8 9 10 10
-9 -9 -9 -8 -7 -9 -6 -6 -8 -8 -0 -5 -9 -11 -12 -11 -11 -8 -4 -6 -4 -5 -5 -3 -4 -4 -3 -3 -4 -5 -6 -4 -4 -3 -1 1 9 9 9 9 6 6 8 9 10
-6 -10 -10 -10 -9 -6 -6 -7 -7 -6 -1 -5 -9 -12 -11 -12 -11 -7 -5 -3 -6 -3 -5 -5 -6 -6 -6 -6 -5 -7 -9 -6 -3 -3 2 0 6 8 9 8 6 6 7 8 9
-2 -7 -14 -12 -14 -10 -8 -6 -7 -2 -6 -4 -5 -7 -11 -11 -11 -11 -2 -1 -2 -2 -1 -2 -4 -8 -7 -5 -7 -8 -9 -5 -3 -1 1 -1 7 6 6 7 5 6 7 6 8
-3 -6 -15 -19 -19 -15 -3 -5 -2 -4 -5 -5 -4 -5 -7 -11 -11 -12 -10 0 -2 -7 -4 -1 0 -4 -7 -7 -6 -8 -10 -6 -2 0 1 -1 5 4 3 5 6 6 6 6 6
-4 -9 -19 -13 -1 -3 0 2 -3 -4 -4 -2 -3 -4 -5 -5 -4 -8 -11 -10 -3 -6 -6 -3 -2 -6 -5 -6 -8 -6 -9 -11 -7 -3 -1 -0 -1 -1 2 3 6 6 6 6 6
-3 -5 -19 -3 -5 -0 0 1 -2 -3 -3 -3 -1 -3 0 -1 -2 -2 -4 -9 -11 -11 -10 -7 -4 -6 -8 -6 -5 -8 -10 -9 -9 -6 -5 -4 -1 0 -0 4 4 6 6 7 6
-3 0 -20 -7 -10 0 1 0 -2 -4 -3 -2 -2 -2 -2 -1 -2 -1 -2 -6 -8 -8 -11 -10 -7 -6 -5 -6 -4 -4 -6 -9 -10 -9 -7 -3 -5 -6 -3 0 4 7 6 6 7
-0 0 -13 -4 -4 -3 0 -2 -4 -4 -4 -3 -4 -5 -5 -2 -3 -3 -1 -3 -5 -5 -4 -8 -9 -6 -7 -7 -6 -6 -6 -8 -7 -6 -6 -9 -7 -6 -5 -4 3 5 5 6 6
-0 1 -6 -3 -2 -2 -2 -2 -2 -1 -1 -1 -1 -3 0 0 2 -2 0 -3 0 0 -1 2 -5 -5 -4 -6 -7 -5 -6 -8 -8 -8 -7 -2 -6 -9 -9 -5 4 4 4 3 5
0 1 -3 -3 -1 -1 -0 1 1 -1 -3 -3 -1 1 2 2 1 4 3 1 1 0 2 -0 1 -3 -2 -4 -7 -5 -6 -7 -9 -6 -7 -7 -7 -9 -8 -5 -0 -5 -7 1 3
-0 -0 -1 0 -0 -0 -1 -0 -0 -1 -3 -2 -0 1 3 4 5 4 4 3 1 1 0 2 2 -2 -3 -5 -7 -5 -4 -6 -6 -8 -6 -7 -8 -9 -10 -9 -7 -11 0 3 3
1 1 1 0 1 -0 -2 -1 2 2 1 1 1 0 -0 2 2 3 3 2 2 1 1 1 3 1 2 -1 -7 -6 -6 -5 -6 -7 -8 -8 -8 -10 -10 -9 -4 -5 -9 2 1
1 1 2 1 -0 -1 -2 -2 -2 -1 2 0 -1 1 -1 -2 -1 -1 -1 -0 0 1 1 3 2 2 3 -1 -5 -3 -5 -4 -4 -5 -7 -6 -7 -6 -6 -3 -0 -3 2 2 1

GFSSW_850_dewp_030.txt.gz
Dewpoint
-6 -7 -7 -9 -12 -15 -17 -19 -20 -19 -18 -17 -16 -15 -15 -15 -15 -15 -14 -15 -15 -16 0 7 11 13 16 17 17 13 12 13 14 13 12 14 14 14 14 14 13 14 13 13 13
0 -0 -3 -6 -7 -8 -11 -13 -16 -18 -20 -19 -19 -18 -16 -16 -15 -13 -11 -12 -13 -15 0 8 13 14 16 17 17 13 13 12 9 9 12 13 14 14 14 13 14 14 13 13 13
1 1 1 0 -1 -4 -6 -8 -11 -13 -16 -19 -20 -19 -19 -17 -15 -13 -7 -7 -13 -13 -2 6 14 16 16 16 16 13 15 11 9 11 11 13 14 14 14 14 14 15 13 13 13
-0 -1 -1 -1 -0 0 -1 -4 -7 -9 -13 -15 -18 -20 -20 -19 -12 -6 -8 -8 -11 -13 -5 7 16 17 15 15 15 14 12 12 11 8 12 13 13 13 12 12 12 14 11 13 14
-3 -3 -4 -4 -4 -2 -1 -0 -2 -6 -8 -12 -14 -17 -20 -17 -14 -11 -9 -10 -7 -12 -7 3 16 16 7 9 13 14 10 10 9 9 8 12 13 13 14 12 13 13 12 14 15
-6 -7 -8 -9 -6 -5 -5 -2 -1 -2 -6 -8 -13 -15 -20 -16 -13 -12 -11 -11 -8 -8 -6 -1 11 14 2 2 8 5 9 8 7 5 5 11 13 13 13 13 13 13 14 14 14
-7 -7 -8 -8 -9 -9 -6 -3 -2 -1 -4 -7 -13 -16 -18 -18 -14 -11 -13 -10 -11 -15 -4 -1 2 5 0 -3 -4 -3 -1 -1 0 1 3 8 13 14 12 13 14 14 15 15 14
-6 -6 -7 -8 -9 -9 -7 -4 -1 -1 -5 -11 -13 -15 -17 -18 -17 -16 -13 -12 -9 -14 -10 -5 -2 -1 -3 -3 -3 -3 -2 -1 -2 -0 -0 10 13 12 12 14 15 14 14 15 14
-10 -11 -11 -10 -10 -9 -6 -3 -2 -5 -5 -3 -6 -14 -13 -15 -17 -16 -9 -10 -10 -6 -7 -4 -4 -2 -3 -3 -2 -3 1 -1 -1 -1 6 9 9 10 12 14 15 15 15 14 15
-12 -13 -15 -17 -15 -5 -7 -4 -1 3 3 1 2 -3 -8 -9 -4 -12 -14 -12 -10 -10 -1 -0 -1 -1 -3 -2 -3 -0 -1 -2 -2 -1 6 7 8 11 13 14 15 15 15 15 15
-14 -15 -17 -19 -18 -6 -7 -4 -3 -2 -2 3 4 -1 -5 -8 -2 -2 -2 -11 -8 -4 -1 -0 1 1 -0 -4 -4 -2 -2 -1 -3 -3 6 7 8 13 13 14 14 15 15 15 14
-14 -14 -15 -20 -20 -9 -5 -4 -4 -3 -1 -5 -4 -3 -3 -3 -5 -1 -3 -8 -5 -2 -3 -2 1 0 -1 -3 -3 -3 -2 -2 -4 -4 4 4 6 13 13 13 14 15 15 15 14
-16 -13 -14 -19 -20 -16 -6 -6 -7 -4 -2 -5 -6 -6 -5 -5 -4 -6 -4 -7 -5 -4 -2 -1 -2 -1 -1 -2 -1 -2 -1 -2 -2 -5 1 6 7 10 13 12 13 14 14 14 15
-16 -12 -12 -15 -16 -18 -9 -8 -11 -3 -5 -6 -8 -9 -8 -7 -5 -7 -3 -7 -5 -3 -5 -3 -4 -1 -1 -0 -2 -1 -4 -4 -4 -4 -2 4 7 9 11 14 12 12 14 14 14
-15 -12 -10 -9 -11 -16 -11 -15 -9 -5 1 -4 -9 -10 -8 -7 -8 -5 -7 -7 -4 -4 -5 -3 -5 -4 -2 -2 -3 -1 -5 -5 -5 -5 -4 -0 5 6 8 14 14 12 12 13 13
-15 -15 -9 -9 -6 -5 -12 -19 -5 -3 2 -4 -8 -10 -8 -10 -11 -5 -5 -4 -6 -5 -6 -5 -7 -5 -5 -6 -4 -4 -5 -5 -4 -3 -0 -2 2 0 11 10 13 12 12 13 12
-14 -13 -8 -1 -4 -3 -4 -11 -5 -1 -5 -2 -3 -4 -5 -7 -10 -5 -3 -2 -3 -2 -3 -4 -5 -6 -7 -5 -5 -4 -3 1 -0 -0 1 -3 -0 -2 3 8 9 11 11 12 12
-12 -11 -8 -2 -5 -5 -7 -5 -2 -4 -4 -3 -3 -3 -3 -3 -4 -3 -3 -2 -2 -4 -3 -2 -1 -5 -6 -6 -4 -3 -3 1 1 0 -0 -3 -0 -2 -4 4 6 7 8 9 10
-10 -11 -4 -6 -4 -7 -0 -2 -3 -4 -2 -2 -2 -2 -2 -2 -3 -3 -3 -2 -2 -5 -2 -2 -2 -4 -7 -6 -7 -4 -2 -5 -4 -4 -3 -2 -3 -4 -2 -1 5 5 6 6 7
-5 -7 -6 -4 -4 -5 0 1 -1 -3 -3 -3 -0 -2 -1 -2 -1 -3 -2 1 1 -1 -3 -4 -0 -4 -6 -7 -6 -6 -6 -2 -5 -0 -1 -3 -4 -1 1 0 1 6 6 5 5
-4 -3 -5 -6 -2 -0 -0 1 -1 -2 -2 -2 -2 -1 -2 -0 -0 -3 -2 2 1 2 -0 -1 -5 -5 -3 -3 -3 -4 -6 -6 -5 -4 -1 -2 -3 -5 -3 0 -2 0 4 3 4
-0 -2 -3 -2 -3 -3 -1 -2 -1 -0 -2 -2 -2 -1 0 0 0 -1 2 3 0 1 5 4 -4 -2 -4 -7 -5 -5 -4 -7 -3 -3 -6 -4 -4 -9 -7 -4 -1 -1 -3 -0 -1
-0 -0 -3 -3 -0 -1 -1 -2 -2 0 0 -1 -2 1 1 1 0 3 2 1 -0 1 5 3 1 -2 -5 -6 -7 -4 -4 -7 -7 -5 -4 -3 -4 -10 -9 -6 -8 -6 -5 -1 -1
-0 -1 -1 -1 -1 -0 0 -1 -0 -0 2 1 -1 0 1 2 2 3 3 1 -1 1 2 1 2 0 1 0 -0 -2 -5 -4 -4 -3 -3 -4 -5 -7 -8 -6 -6 -7 -8 -7 0
-0 -0 -1 -1 -1 -0 -1 -1 1 1 -1 2 3 0 1 2 2 2 1 1 -1 0 -1 1 2 2 1 1 1 0 -1 -2 -3 -3 -2 -3 -3 -4 -6 -5 -6 -12 -7 -2 -6
0 0 1 0 0 -0 -2 -2 -1 -2 -0 0 4 2 -1 1 1 1 0 1 1 0 -1 -0 2 2 3 1 0 1 -1 -2 -3 -4 -4 -4 -4 -7 -8 -10 -8 -9 -10 -9 -10
-0 0 1 1 0 1 -1 -1 -1 -2 -1 2 2 2 -1 -0 -1 -1 -1 -1 -1 1 0 0 2 3 4 2 1 1 -3 -2 -3 -5 -5 -4 -5 -8 -7 -6 -7 -10 -11 -11 -12

GFSSW_850_dewp_033.txt.gz
Dewpoint
2 2 1 -1 -5 -7 -8 -10 -13 -16 -18 -19 -18 -18 -16 -15 -15 -14 -13 -12 -14 -14 -6 1 9 13 17 17 16 14 12 13 11 13 12 14 14 14 14 14 13 14 14 14 16
2 2 2 2 1 0 -2 -5 -7 -11 -14 -17 -19 -19 -18 -17 -15 -14 -10 -11 -12 -13 -11 4 14 15 15 16 16 12 14 12 9 10 8 13 13 14 14 13 13 15 14 14 16
0 0 -0 -1 0 0 0 0 -2 -6 -9 -12 -15 -17 -19 -19 -17 -12 -8 -8 -11 -13 -13 9 14 15 15 16 16 15 14 12 8 9 11 13 13 13 13 13 13 14 15 15 15
-5 -6 -6 -7 -7 -4 -3 -2 -1 -0 -4 -7 -11 -14 -16 -19 -11 -11 -8 -9 -8 -13 -3 14 14 14 14 15 16 15 13 12 11 10 12 13 13 13 13 11 11 14 14 15 15
-7 -7 -7 -8 -8 -8 -8 -6 -3 -1 -0 -4 -7 -11 -13 -17 -17 -12 -10 -11 -7 -5 5 14 14 13 14 14 14 15 12 10 10 9 8 12 13 13 13 12 13 14 15 15 15
-8 -8 -9 -9 -9 -9 -9 -8 -6 -2 -0 -2 -5 -7 -11 -14 -17 -14 -12 -11 -7 7 9 12 13 14 11 9 11 8 11 8 2 4 5 8 9 13 12 13 14 14 14 14 15
-13 -14 -14 -14 -15 -13 -9 -7 -5 -3 -0 -1 -3 -6 -10 -15 -17 -14 -12 -12 -10 -4 8 8 8 10 7 1 3 -0 -1 -2 -3 -1 1 3 8 12 12 14 14 14 14 14 14
-15 -16 -17 -18 -18 -18 -7 -6 -3 -2 -1 -1 -6 -9 -11 -17 -17 -12 -11 -10 -6 1 6 5 2 9 -1 -3 -3 -3 -2 -0 -2 -2 -1 3 3 7 12 13 14 14 14 15 15
-16 -16 -18 -19 -20 -21 -7 -6 -1 2 -2 -3 -3 -9 -8 -15 -17 -17 -14 -10 -6 2 1 2 3 1 -2 -2 -3 -4 -2 0 -1 -3 2 5 3 6 12 13 14 14 14 14 15
-18 -19 -22 -20 -20 -18 -9 -5 -3 -2 4 2 2 -3 -8 -8 -13 -16 -16 -9 1 4 3 0 -0 -0 -1 -2 -1 -3 -2 -2 -1 -1 4 5 6 8 12 13 14 14 14 14 14
-17 -17 -21 -24 -21 -15 -6 -4 -4 -1 -3 6 5 -0 -2 -5 1 -9 -12 -1 -3 -1 -2 -1 -1 -0 -2 -3 -5 -6 -5 -2 -2 -3 4 4 5 7 12 13 13 14 14 14 14
-17 -18 -19 -25 -24 -16 -6 -5 -6 -5 -1 -5 -4 -2 -1 -1 -3 -0 -13 -8 -6 -4 -4 0 -1 -4 -4 -2 -3 -5 -5 -3 -2 -4 -2 0 5 6 11 13 13 14 14 14 14
-15 -17 -18 -24 -21 -18 -12 -5 -7 -7 -1 -4 -5 -4 -4 -3 -2 -3 -7 -10 -7 -6 -4 -4 -5 -5 -2 -1 -1 -2 -5 -5 -3 -4 -2 1 1 5 10 11 12 14 13 14 14
-13 -14 -14 -22 -16 -12 -7 -4 -9 -5 -2 -4 -7 -6 -6 -5 -4 -4 -5 -8 -8 -5 -5 -6 -6 -3 -3 -2 -2 -3 -5 -6 -4 -2 0 1 3 6 6 12 12 12 14 14 14
-13 -12 -11 -12 -7 -6 -5 -6 -12 -3 -2 -4 -9 -9 -7 -5 -6 -5 -6 -5 -6 -6 -4 -4 -3 -2 -1 -3 -2 -3 -4 -5 -5 -3 -1 -1 2 2 8 11 12 12 13 13 13
-13 -11 -10 -6 -6 -6 -6 -7 -4 -3 -0 -3 -9 -9 -6 -7 -9 -5 -5 -5 -5 -4 -6 -7 -6 -4 -2 -3 -2 -3 -3 -3 -2 -2 1 -0 0 1 3 6 8 11 11 13 13
-13 -12 -8 -5 -5 -7 -6 -10 -3 -1 -4 -2 -2 -3 -3 -5 -9 -5 -3 -3 -2 -2 -1 -4 -5 -5 -5 -2 -3 -2 -3 -0 0 0 0 -1 1 1 -0 2 1 8 11 12 12
-12 -10 -6 -5 -6 -8 -7 -7 -1 -4 -2 -3 -3 -3 -3 -3 -4 -4 -3 -2 -3 -5 -4 -2 -1 -5 -6 -4 -3 -2 -3 -4 -1 -3 -4 -0 1 -0 -2 -3 1 2 6 10 12
-10 -10 -5 -5 -8 -7 -4 -8 -3 -1 -1 -1 -3 -1 -2 -3 -3 -3 -3 -3 -3 -4 -3 -3 -3 -5 -6 -7 -5 -3 -1 -6 -5 -3 -3 -4 -3 -3 -2 -2 0 3 4 8 10
-8 -8 -4 -6 -3 -3 -5 -1 -1 -1 -1 -2 -0 -2 -0 -2 -1 -3 -1 1 -0 -0 0 -2 -0 -4 -6 -7 -6 -4 -5 -2 -3 -2 -1 -3 -1 -3 1 -1 -0 2 2 5 6
-5 -5 -4 -4 -5 -3 -2 -1 -2 -1 -1 -2 -1 -0 -1 -0 -1 -2 2 1 -1 1 1 -0 -2 -2 -4 -3 -4 -5 -3 -4 -5 -4 -5 -5 -6 -3 -0 4 2 -0 -0 2 4
-3 -4 -4 -5 -4 -3 -3 -3 -3 -2 -0 -1 -2 -0 1 0 -1 1 3 2 -2 2 4 2 -2 -0 -2 -5 -6 -5 -4 -3 -2 1 -3 -5 -7 -6 -4 -3 1 -1 -1 1 4
-0 -2 -4 -4 -1 -1 -2 -2 -3 -1 0 1 0 0 -0 1 1 1 2 0 -1 2 3 1 2 2 0 -3 -5 -3 -4 -4 -4 -4 1 -2 -5 -7 -5 -4 -4 -2 -1 -4 -5
-0 -2 -3 -2 -1 -2 -2 -2 -2 -2 -0 2 2 -1 0 1 1 1 1 -1 -2 -0 1 1 1 2 1 1 0 1 -2 -3 -3 -1 -1 -1 -4 -5 -5 -3 -3 -3 -5 -4 -4
-0 -0 -1 -2 -3 -2 -2 -2 -1 -1 -3 -1 3 3 2 2 -0 0 -0 -1 -3 -1 -2 0 2 1 0 -1 -1 0 -1 -1 -1 -1 0 -2 -2 -3 -3 -3 -3 -4 -2 -5 -3
-1 -0 1 -0 0 -1 -2 -2 -1 -2 -2 -3 3 3 3 3 1 1 -1 -0 -0 -1 -1 -2 -1 -0 -1 -3 -3 0 -1 -1 -1 -2 -2 -2 -1 -4 -4 -3 -2 -4 -4 -6 -2
-0 0 1 0 0 1 -1 -2 -2 -2 -2 -1 1 -0 -1 2 -2 -2 -3 -3 -3 -1 -1 -1 -2 -1 -2 -1 -1 0 -1 -2 -2 -3 -3 -1 -3 -5 -4 -3 -2 -3 -3 -3 -5

GFSSW_850_dewp_036.txt.gz
Dewpoint
3 3 2 2 2 2 1 -1 -4 -7 -9 -13 -17 -18 -18 -17 -17 -16 -13 -11 -13 -15 -9 11 14 15 15 15 15 14 11 10 9 10 10 12 12 12 12 12 12 13 13 14 15
-0 -1 -2 -2 -3 -2 0 0 0 -1 -4 -7 -12 -15 -18 -18 -18 -15 -11 -11 -12 -14 4 10 13 14 14 13 14 13 11 9 8 7 8 11 11 12 11 12 12 13 13 15 15
-6 -7 -7 -7 -7 -7 -6 -4 -3 -2 -0 -2 -7 -11 -14 -17 -11 -11 -11 -10 -11 -12 3 9 9 12 10 11 13 11 10 9 6 7 9 10 11 12 11 11 11 13 14 15 15
-9 -9 -10 -10 -9 -9 -8 -7 -6 -5 -3 -1 -2 -7 -10 -15 -9 -6 -8 -8 -9 -6 4 6 9 10 9 11 12 13 10 10 7 8 9 11 11 11 11 9 11 13 14 15 15
-15 -16 -16 -17 -17 -16 -14 -12 -9 -7 -5 -3 -1 -4 -7 -3 -10 -13 -9 -11 -8 4 5 7 10 8 7 9 10 12 9 8 8 8 7 7 9 9 11 10 10 13 14 14 14
-16 -17 -18 -20 -20 -21 -20 -17 -7 -6 -5 -3 -1 -2 -4 -5 -14 -16 -10 -12 -4 6 5 7 8 7 6 8 10 8 9 7 4 3 3 4 7 8 9 11 12 13 14 14 14
-22 -22 -23 -23 -22 -21 -23 -18 -6 -4 -2 -2 -1 -2 -0 -6 -13 -16 -1 2 7 6 4 6 7 7 7 7 5 6 3 0 1 -1 -0 1 3 5 7 11 13 13 13 13 13
-23 -25 -26 -26 -27 -24 -22 -14 -7 -3 -2 -1 -1 -2 0 -6 -10 -7 2 3 8 6 3 5 7 7 5 1 -2 2 -2 1 -0 -2 -2 -1 3 3 7 11 13 13 13 13 13
-22 -25 -26 -27 -28 -25 -19 -10 -5 -3 -1 -2 -2 2 -2 -8 -11 -8 2 3 8 7 4 4 5 6 5 1 -1 -2 2 3 1 -2 -1 0 3 4 6 10 12 13 13 13 13
-21 -23 -25 -26 -27 -23 -15 -7 -4 -2 4 4 5 2 -2 -7 -7 -12 -4 -1 8 5 4 5 3 3 5 4 3 1 0 0 3 0 -1 2 3 1 6 10 11 12 13 13 13
-18 -21 -23 -24 -25 -20 -20 -2 1 4 -2 3 4 -1 -1 -4 -3 -10 -12 3 6 2 -1 -2 -1 -0 -2 -2 -2 -2 -1 0 -0 -1 -1 1 2 1 6 9 10 12 13 13 13
-16 -17 -21 -23 -22 -17 -9 -4 -2 -2 -3 -5 -4 -1 1 1 -1 -8 -7 -2 0 2 -4 -4 -2 -6 -5 -5 -4 -3 -3 -1 -1 -2 -2 1 2 1 5 9 10 11 12 12 13
-15 -17 -21 -23 -19 -7 -2 -1 -1 -2 -3 -6 -5 -5 -4 -3 -2 -5 -6 -6 -3 -2 -5 -5 -7 -7 -7 -5 -3 -3 -3 -2 -1 -2 -3 -1 1 1 2 7 8 10 11 11 12
-13 -17 -18 -22 -6 -5 -5 -3 -1 -2 -2 -8 -6 -5 -4 -3 -3 -3 -10 -7 -6 -3 -5 -6 -8 -7 -6 -5 -5 -3 -6 -5 -4 -2 1 -1 4 2 1 4 6 7 10 11 12
-12 -15 -17 -12 -6 -3 -3 -2 -2 -0 -7 -5 -7 -7 -6 -4 -5 -5 -4 -8 -8 -7 -6 -5 -7 -6 -5 -6 -6 -6 -9 -5 -5 -4 -2 -1 2 1 1 2 4 5 8 11 11
-12 -12 -12 -4 -2 -4 -4 -5 0 -2 -6 -4 -10 -8 -7 -5 -5 -5 -3 -11 -11 -9 -8 -7 -9 -10 -7 -7 -8 -9 -7 -7 -5 -5 -1 -0 1 1 1 3 2 3 6 9 11
-12 -11 -8 -9 -4 -6 -7 -2 -5 -6 -8 -2 -3 -5 -6 -7 -4 -5 -3 -2 -2 -1 -4 -6 -7 -7 -8 -5 -5 -6 -4 -2 -3 -3 -2 -3 -0 1 -1 -1 1 1 3 8 11
-11 -11 -5 -5 -5 -7 -4 -6 -7 -7 -1 -3 -3 -3 -3 -5 -6 -6 -3 -2 -3 -3 -3 -2 -3 -6 -7 -5 -3 -4 -5 -6 -1 -5 -5 -4 -0 -0 -2 -3 -2 -1 -1 5 9
-10 -3 -4 -5 -5 -3 -5 -9 -10 -0 -1 -2 -3 -2 -2 -3 -4 -4 -5 -3 -3 -4 -1 -2 -2 -8 -7 -7 -6 -3 -2 -8 -9 -7 -5 -7 -5 -5 -4 -3 -2 -2 -2 -0 8
-7 -3 -5 -5 -5 -2 -9 -6 -4 -4 -4 -3 -0 -2 1 -1 -1 -3 -5 -1 -2 -4 -4 -2 -0 -6 -7 -7 -7 -5 -6 -4 -6 -1 -2 -7 -5 -3 -3 -2 -2 -2 -2 -1 3
-2 -5 -5 -5 -5 -9 -8 -7 -7 -7 -5 -3 -2 -1 -1 -0 -1 -2 -0 -0 -2 -2 0 -2 -2 -2 -5 -4 -4 -5 -4 -5 -7 -6 -4 -4 -7 -7 -4 -2 -2 -2 -2 -1 2
-2 -8 -4 -4 -7 -7 -6 -5 -6 -6 -5 -4 -3 -4 -1 -0 0 -0 2 1 -1 -0 2 -1 -1 1 -3 -6 -8 -7 -5 -4 -4 -0 -4 -5 -8 -10 -8 -6 -3 -4 -3 -2 -1
-2 -3 -4 -5 -5 -5 -5 -5 -6 -5 -4 -2 0 -2 -2 -1 1 0 1 -2 -3 -0 3 1 0 2 0 -3 -5 -5 -6 -6 -6 -5 -0 -3 -6 -7 -5 -5 -3 -3 -2 -1 -0
-2 -4 -6 -5 -4 -5 -4 -4 -4 -6 -5 -5 3 2 1 -3 -3 -0 -0 -3 -4 -3 0 1 1 1 1 0 -3 -2 -4 -5 -5 -2 -3 -2 -5 -6 -7 -5 -6 -6 -5 -3 0
-1 -4 -2 -3 -4 -3 -3 -5 -4 -4 -5 -6 2 3 4 2 -3 -2 -2 -3 -4 -3 -3 -1 3 2 1 0 -0 -1 -3 -4 -3 -3 -1 -4 -3 -4 -5 -5 -5 -5 -5 -5 -4
-1 -1 -0 -2 -2 -3 -4 -3 -5 -5 -4 -4 2 -1 -2 4 4 2 -1 -2 -2 -2 -3 -3 2 1 2 -1 -2 -1 -1 -2 -3 -3 -2 -3 -2 -5 -5 -5 -5 -4 -3 -3 -3
1 1 2 -1 -2 -2 -2 -5 -4 -4 -5 -4 -4 -4 -4 -2 0 -1 -3 -3 -4 -2 -2 -2 -2 1 2 -1 -1 2 -0 -1 -1 -2 -2 0 -1 -3 -2 -3 -3 -4 -4 -4 -4

GFSSW_850_dewp_042.txt.gz
Dewpoint
-17 -18 -18 -17 -17 -16 -14 -12 -9 -7 -4 -2 -1 -3 -9 -13 -15 -16 -15 -11 -8 -8 -11 5 3 11 13 13 12 12 17 17 12 11 11 7 9 10 10 13 12 14 15 16 16
-22 -23 -24 -23 -23 -22 -21 -21 -20 -17 -11 -9 -5 -2 -3 -10 -13 -15 -11 -10 -9 -8 -8 2 4 10 12 12 11 12 17 16 11 10 10 7 6 8 9 10 13 14 16 16 15
-27 -28 -28 -28 -28 -29 -29 -26 -24 -23 -22 -18 -8 -5 -3 -5 -5 -8 -8 -8 -9 -9 -5 1 3 9 11 10 10 10 14 14 13 11 8 8 6 7 8 10 13 15 16 16 15
-27 -27 -28 -28 -28 -29 -29 -30 -30 -26 -24 -19 -7 -6 -5 -5 -1 1 -7 -9 -9 -10 -3 1 3 6 9 9 8 9 10 10 10 9 10 12 11 9 7 9 13 14 15 15 15
-25 -26 -26 -27 -28 -28 -29 -30 -30 -29 -23 -17 -7 -4 -5 2 -4 -5 -8 -9 -8 -8 -2 -2 3 5 9 8 7 7 10 10 11 10 11 12 10 9 8 9 12 14 14 14 14
-23 -24 -25 -26 -27 -28 -29 -29 -30 -27 -20 -12 -4 -1 -5 2 -2 -4 -3 -9 -7 -6 -2 -4 2 4 6 7 6 6 6 7 9 5 10 10 11 9 8 7 11 13 13 13 13
-23 -24 -25 -26 -27 -28 -28 -26 -26 -21 -16 -9 -3 -1 2 0 -3 -10 -5 -1 -3 -4 -5 -5 -2 3 4 6 5 5 6 6 8 4 4 3 11 10 11 8 10 12 13 12 12
-22 -23 -24 -26 -27 -29 -29 -25 -23 -9 -5 -9 -3 -2 2 1 -2 -6 -14 -8 -2 -4 -5 -4 -6 -0 2 4 4 5 6 9 6 5 3 2 5 9 9 9 10 11 12 12 11
-21 -22 -23 -25 -27 -24 -22 -10 -6 -5 -0 -3 2 4 3 1 1 -1 -7 -12 -1 -2 -1 -3 -5 -2 -0 5 7 6 8 9 7 4 4 2 3 2 8 8 10 11 11 11 12
-19 -20 -22 -24 -22 -10 -8 -7 -4 -1 8 5 7 6 4 0 -1 -1 -3 -9 -2 -1 1 -1 -2 -2 0 5 9 8 6 6 7 3 2 3 2 3 3 9 10 11 11 11 12
-18 -19 -22 -23 -16 -7 -5 -8 -9 4 -4 1 3 1 -0 0 -4 -4 -4 -7 -3 -1 2 1 1 3 2 3 5 5 4 3 4 3 2 2 2 3 3 5 10 11 11 11 11
-18 -20 -23 -24 -12 -7 -6 -8 -9 -7 -6 -7 -7 -6 -2 -0 -2 -6 -7 -7 -2 1 2 3 4 1 0 2 4 4 3 -0 1 1 3 2 2 0 4 4 9 11 11 11 11
-18 -21 -22 -24 -10 -6 -8 -9 -10 -9 -7 -9 -10 -10 -11 -7 -3 -3 -9 -6 -2 2 3 3 1 -0 0 2 2 4 4 1 1 2 4 2 4 2 2 3 5 9 10 11 11
-16 -19 -20 -21 -9 -3 -10 -11 -11 -9 -6 -10 -11 -12 -12 -13 -5 -1 -9 -2 -3 0 3 2 -0 -0 1 2 -0 4 3 1 1 2 5 1 5 5 1 3 6 7 9 10 11
-15 -16 -18 -5 -8 -4 -11 -11 -10 -8 -2 -11 -10 -8 -11 -13 -8 -2 -3 -4 -2 -0 2 3 1 -1 1 1 -2 -3 -4 1 1 0 1 1 3 2 1 2 6 6 8 9 10
-13 -14 -12 -4 -4 -7 -11 -11 -9 -5 -5 -4 -5 -4 -5 -11 -11 -8 -1 -5 -4 -3 1 2 -2 -5 -6 -5 -7 -8 -4 -3 -3 -1 3 0 2 4 2 3 1 4 7 8 9
-11 -11 -7 -5 -5 -10 -10 -9 -9 -6 -12 -6 -5 -6 -6 -4 -7 -10 -2 -1 -5 -3 4 2 1 -5 -9 -8 -8 -9 -7 -2 -1 1 2 -1 0 2 -1 1 0 4 3 7 8
-6 -7 -5 -3 -9 -10 -10 -9 -6 -11 -9 -9 -9 -9 -6 -5 -4 -6 -5 -0 -6 -7 -1 0 2 -1 -9 -9 -6 -7 -8 -4 2 -0 -2 -2 1 0 -2 -3 -4 0 1 3 6
-5 -1 -2 -7 -9 -9 -9 -6 -11 -11 -12 -11 -13 -9 -7 -5 -1 0 -3 -2 -3 -8 0 -1 -1 -4 -6 -9 -8 -7 -5 -9 -7 -7 -5 -5 -4 -5 -3 -2 -3 -4 -0 2 4
-1 -1 -1 -6 -9 -7 -7 -6 -11 -12 -12 -13 -12 -11 -8 -6 -3 1 2 -5 -3 -7 -7 -3 -1 -5 -5 -7 -9 -7 -8 -6 -6 0 1 -5 -1 -1 -1 0 -1 -1 -2 0 3
0 -3 -6 -6 -8 -7 -6 -10 -9 -11 -14 -13 -10 -10 -9 -4 0 0 2 3 -0 -3 -5 -5 -2 -3 -5 -4 -5 -7 -5 -7 -8 -6 -2 -1 -4 -4 1 -0 -0 -1 -2 -1 2
1 -2 -5 -7 -7 -10 -9 -9 -10 -10 -12 -12 -10 -10 -2 -0 2 4 6 5 3 -2 -0 -2 -3 -0 -2 -6 -7 -7 -6 -5 -1 2 -4 -2 -5 -7 -5 -2 -3 -3 -2 -2 -0
0 -2 -5 -5 -5 -6 -8 -8 -10 -9 -7 -6 -8 -10 -8 -4 1 5 5 4 3 -0 1 1 1 2 1 -0 -5 -4 -6 -6 -5 -5 2 -1 -4 -5 -4 -1 -2 -2 -3 -2 -1
1 0 -1 -2 -3 -4 -4 -6 -8 -11 -5 -2 -2 -7 -6 -3 -3 4 4 2 2 -0 -1 -0 3 3 3 3 -1 -1 -5 -5 -5 -1 -2 -3 -3 -3 -4 -6 -1 -2 -2 -1 1
-0 -1 0 1 -1 -1 -2 -5 -5 -4 -3 -3 -6 1 -0 -2 -1 2 2 1 1 1 -1 0 5 3 1 -1 -1 -4 -5 -5 -3 -2 -0 -4 -4 -1 -1 -1 -1 -3 -2 -1 2
2 3 2 2 -0 -1 -1 0 -3 -6 -7 -7 -5 0 0 -2 -3 -2 -2 0 4 -0 -1 -1 4 3 4 1 1 1 -4 -4 -5 -6 -5 -4 -5 -2 -1 -3 -2 -0 -1 0 1
2 2 2 2 -0 1 -0 -1 -3 -4 -5 -7 -4 -6 -6 -7 -7 -7 -7 -5 0 -1 -2 0 2 4 6 3 3 4 0 -3 -4 -5 -5 -2 -2 -2 -0 0 0 -2 -3 -2 -2

GFSSW_850_dewp_048.txt.gz
Dewpoint
-25 -25 -25 -26 -26 -27 -27 -27 -28 -29 -30 -30 -25 -22 -14 -4 -1 -5 -12 -13 -12 -10 -5 -8 -0 9 14 16 17 14 16 17 17 16 16 13 15 15 14 15 15 15 14 14 13
-25 -25 -25 -26 -27 -27 -28 -28 -29 -28 -29 -30 -28 -23 -19 -6 -3 -2 -12 -15 -14 -13 -7 -5 -3 8 14 15 16 16 17 16 13 12 12 13 14 14 15 15 15 15 14 13 14
-25 -25 -26 -27 -27 -28 -28 -28 -29 -27 -24 -26 -26 -22 -14 -7 -3 -3 -6 -16 -15 -12 -9 -1 0 2 4 9 15 15 16 14 12 12 12 12 13 15 15 16 15 16 15 12 11
-25 -25 -27 -27 -27 -28 -25 -23 -19 -14 -14 -20 -16 -18 -12 -8 1 -4 -7 -6 -15 -11 -9 -8 1 2 4 9 11 14 13 12 11 10 11 11 10 15 15 15 15 14 14 12 12
-25 -26 -27 -27 -27 -28 -21 -10 -8 -6 -7 -11 -9 -10 -4 -4 -6 -2 -6 -8 -11 -9 -8 -7 -6 -3 3 7 9 12 12 11 11 10 10 8 10 14 15 15 15 15 14 12 13
-23 -23 -24 -25 -26 -25 -14 -8 -6 -6 -8 -6 -6 -4 -0 2 -7 -3 -3 -6 -8 -11 -7 -6 -5 -1 1 3 9 10 11 10 11 10 10 11 10 12 16 16 15 15 15 15 14
-21 -21 -23 -24 -25 -22 -10 -8 -9 -11 -8 -8 -4 -1 2 -18 -7 -1 -0 -3 -8 -8 -9 -9 -6 -2 0 3 3 5 8 9 10 10 10 11 11 16 16 16 15 15 15 16 15
-18 -19 -19 -22 -24 -22 -8 -7 -10 -7 0 1 3 7 1 -25 -10 -6 -1 -2 -1 -7 -9 -10 -9 -3 -2 -1 -4 5 6 10 10 11 11 9 12 15 16 15 16 15 15 15 15
-10 -14 -17 -19 -22 -19 -7 -7 -14 -5 -1 -5 5 8 3 -5 -1 -0 -2 -1 0 -5 -7 -9 -7 -4 -3 -3 -2 4 7 8 10 10 11 11 11 15 16 15 15 15 15 15 14
-8 -10 -12 -16 -20 -19 -7 -7 -16 -13 4 -5 6 7 -3 -4 -1 1 0 -1 0 -3 -4 -5 -6 -4 -3 -2 2 5 8 7 8 10 10 12 10 14 15 15 15 15 15 15 14
-9 -8 -9 -13 -17 -13 -6 -11 -11 -12 -11 -11 -11 -7 -8 -16 -12 -2 -0 -1 1 -1 -1 -3 -3 -1 -3 -3 -3 2 5 7 6 6 11 10 11 11 14 14 15 15 15 15 15
-10 -7 -7 -10 -15 -9 -6 -10 -10 -10 -11 -11 -10 -11 -11 -11 -10 -5 -2 -2 -2 0 -1 0 -1 -4 -1 -3 -3 -1 2 5 6 5 7 9 11 10 13 14 14 15 15 15 15
-9 -7 -8 -9 -13 -14 -11 -11 -10 -10 -11 -10 -9 -10 -11 -10 -10 -11 -6 -2 -1 -2 -0 1 1 -1 -0 -0 -2 -1 1 1 7 5 3 7 9 12 11 13 14 14 14 14 13
-13 -10 -9 -10 -14 -10 -11 -12 -10 -9 -6 -6 -9 -11 -14 -10 -10 -9 -11 -6 -2 -3 -4 0 -1 0 1 1 -1 1 -2 -0 3 6 8 5 10 8 11 13 13 13 13 13 12
-16 -16 -8 -9 -11 -10 -10 -10 -9 -9 -8 -9 -13 -13 -16 -13 -12 -7 -7 -6 -2 -2 -5 -2 -0 1 2 1 -0 0 -2 -0 2 6 6 6 8 7 11 15 13 12 12 11 13
-15 -18 -7 -7 -8 -8 -8 -8 -9 -6 -2 -11 -13 -14 -15 -14 -12 -9 -8 -6 -4 -3 -3 -3 -4 -1 1 1 1 -1 1 2 2 4 7 6 6 7 13 14 13 11 12 10 13
-16 -15 -4 -5 -6 -7 -7 -7 -6 -5 -11 -10 -11 -14 -15 -9 -10 -7 -6 -4 1 5 -0 -3 -3 -2 0 2 1 1 3 6 7 6 7 5 5 5 10 12 12 11 13 12 12
-17 -6 -3 -4 -5 -6 -5 -6 -2 -7 -9 -11 -12 -14 -10 -5 -6 -6 -4 -3 2 4 6 -2 -1 -2 -2 2 3 2 2 6 8 6 4 1 5 3 -0 3 11 11 12 13 11
-15 -4 -2 -2 -2 -4 -2 -3 -4 -5 -9 -9 -12 -11 -9 -11 -5 -4 -3 -1 -0 3 6 6 -1 -1 -1 -1 1 3 3 -1 -0 -1 1 1 -1 -2 -3 -2 10 12 12 13 12
-13 -3 -1 -2 -3 -4 -6 -2 -4 -7 -10 -10 -5 -10 -8 -8 -4 -4 -3 -4 -3 0 2 4 6 -1 -1 -2 -0 -0 -1 1 -2 3 0 -1 -2 1 -3 -4 -3 11 12 13 11
-10 -0 -1 -3 -4 -4 -3 -4 -5 -8 -9 -5 -4 -5 -5 -4 -4 -6 -4 -6 -1 1 1 3 4 3 -3 -3 2 -0 -0 -2 -1 -3 -0 -0 -2 -5 -4 -3 -4 3 11 11 11
-5 0 -0 -3 -2 -2 -0 -1 -2 -2 -4 -5 -5 -4 -4 -4 -2 -3 -0 1 -1 3 3 3 5 7 2 -4 -5 2 -4 -4 -2 -2 -3 -1 -2 -7 -6 -5 -6 -6 9 10 10
-0 1 -1 -3 0 0 -1 -1 -2 -1 -2 -4 -4 -5 -5 -4 -1 1 -0 -2 -0 3 5 5 7 8 3 -3 -5 -4 0 -6 -6 -5 -3 -3 -4 -7 -6 -3 -1 -4 -3 9 10
2 1 -1 -1 -1 0 1 1 -0 -1 -1 -2 -3 -5 -2 -2 -1 1 1 1 1 0 2 5 6 7 8 4 2 -1 -3 -3 -6 -4 -4 -4 -5 -6 -7 -4 0 -3 -4 3 9
1 1 2 1 0 1 0 -1 0 0 -2 -2 -1 -1 -1 0 -1 -0 -0 -2 -2 1 3 4 6 3 2 1 1 2 0 -2 -5 -5 -4 -5 -3 -5 -5 -2 1 -1 -1 4 9
1 1 1 1 1 0 0 1 3 1 1 1 1 0 1 -1 -1 -1 -2 -2 -0 1 3 3 4 2 1 2 3 4 2 2 -4 -6 -3 -5 -3 -6 -2 2 5 6 3 6 9
2 2 2 2 2 2 1 2 2 1 1 -0 0 2 1 -1 -4 -5 -5 -4 -0 2 2 4 2 3 5 4 4 6 3 3 -2 -6 -6 -3 -4 1 4 9 10 1 4 7 8